Theta_e
326 325 325 325 325 325 325 325 326 326 326 326 324 323 322 321 323 326 327 327 327 329 331 331 330 330 330 329 329 329 329 330 329 325 322 319 316 314 313 316 319 322 322 318 315 314 312 310 308 308 307 306 306 306 306 306 305 305 305 304 304 304 304 303 303 303 303 304 304 304 304 305 305 305 305 306 306 307 307 307 308 308 309 308 308
326 326 326 326 325 325 325 325 325 326 326 326 326 325 325 324 325 327 328 327 327 328 330 330 330 330 329 328 328 330 330 329 327 324 322 320 316 315 314 314 316 318 318 316 317 319 317 313 309 308 308 307 307 306 306 306 306 306 307 306 306 305 304 304 303 303 303 303 303 303 303 303 304 304 304 304 305 306 306 307 308 308 308 309 308
325 326 326 326 326 325 325 324 324 325 325 325 326 327 327 327 326 327 328 327 327 327 328 329 329 329 328 327 328 330 330 329 327 325 324 321 317 315 314 315 316 316 315 314 317 321 322 318 312 309 309 308 308 308 309 309 310 311 311 311 310 309 308 306 305 304 303 303 302 302 302 302 302 303 303 303 303 304 306 307 307 308 308 309 309
325 326 326 326 326 325 325 324 323 324 325 325 325 326 327 328 328 328 328 327 327 327 328 328 328 328 328 328 328 329 329 329 328 326 324 321 318 315 314 316 316 315 313 314 317 320 321 321 318 314 311 311 312 313 314 315 316 317 317 317 316 314 313 312 311 309 308 306 304 303 302 302 302 302 302 302 302 303 305 306 307 308 308 308 309
325 326 326 326 325 324 324 324 323 323 325 325 324 325 326 327 328 328 327 327 327 327 327 327 327 328 328 328 329 329 329 328 327 326 324 321 318 317 316 316 316 315 314 316 318 318 319 320 320 318 317 319 320 319 320 320 321 323 323 323 322 320 319 318 317 316 314 313 311 308 306 304 303 302 302 302 303 304 305 307 308 308 308 308 309
326 326 326 326 325 324 324 324 324 323 323 323 323 324 324 325 326 327 327 327 327 327 326 326 327 328 328 328 328 328 329 327 326 325 323 322 320 320 319 318 317 318 318 319 320 321 322 322 321 321 322 323 324 324 325 325 325 326 326 326 326 325 325 323 322 321 319 317 316 314 312 311 310 309 308 308 308 308 308 309 309 308 308 308 309
326 327 327 326 326 325 325 325 325 324 323 323 323 323 324 324 325 326 326 326 327 326 326 326 327 327 327 328 328 328 328 326 325 325 324 323 323 323 322 321 320 321 321 322 323 324 325 325 324 324 324 324 325 326 326 326 326 326 327 327 327 327 326 326 325 324 324 323 321 320 318 317 316 316 315 314 313 312 311 311 310 309 308 308 308
326 327 327 327 326 325 325 325 326 325 323 322 322 323 324 324 325 326 326 326 326 326 325 325 326 327 327 327 328 328 327 326 326 326 325 325 325 324 324 323 323 323 323 324 326 326 326 325 325 325 325 325 326 326 326 326 326 327 327 327 327 326 325 326 326 325 325 326 325 324 323 322 321 321 321 320 318 315 313 312 310 309 309 308 308
326 327 328 328 327 326 326 326 326 326 324 322 322 323 324 324 324 325 326 325 325 325 325 324 325 327 327 327 327 327 327 326 327 327 326 325 325 325 325 324 324 324 324 325 326 326 326 325 325 324 324 324 324 324 324 324 325 326 326 326 326 325 324 325 325 325 325 326 326 326 326 325 324 324 324 324 322 319 314 313 312 311 310 309 308
327 328 328 328 328 327 327 327 326 326 324 322 322 322 323 323 324 324 324 324 323 325 325 324 325 327 327 327 327 327 327 327 327 327 326 326 326 326 326 325 325 325 324 325 325 326 326 325 324 323 323 323 323 322 323 323 323 324 325 324 325 325 325 325 325 325 325 326 326 326 326 325 325 325 325 325 325 323 317 314 313 312 311 310 309
327 327 328 329 328 328 328 328 327 326 325 323 322 322 322 323 324 323 323 324 324 325 325 325 326 327 326 326 327 327 326 326 326 326 326 326 326 326 326 326 325 325 325 325 325 326 325 325 324 323 323 323 322 322 322 322 323 324 324 324 324 324 324 324 325 325 325 325 325 325 325 325 325 326 326 325 325 325 322 318 316 315 313 311 310
328 328 329 329 329 328 328 328 327 326 325 323 322 322 322 323 324 323 323 324 324 325 326 325 325 325 325 325 325 325 325 325 325 325 325 325 325 325 325 325 325 325 325 325 325 325 324 325 324 323 323 322 322 322 322 322 322 322 322 323 323 323 323 323 324 324 324 324 324 324 325 325 325 326 326 326 325 325 325 323 321 320 318 315 313
328 329 329 329 328 327 327 327 327 326 325 324 322 322 322 323 324 324 323 324 324 326 326 325 323 323 324 325 325 325 325 325 325 325 325 324 325 325 325 325 325 324 324 325 325 324 324 324 324 323 322 321 321 322 321 320 319 319 319 320 321 322 322 323 322 322 323 323 323 323 323 323 324 325 325 326 326 325 326 325 324 324 323 321 319
326 327 328 328 327 326 327 327 327 327 325 324 323 322 322 323 324 324 324 324 324 325 326 324 322 322 323 324 325 325 326 325 324 324 325 325 325 325 324 324 324 324 323 323 323 323 323 323 323 322 322 322 321 320 318 317 318 318 318 318 320 322 322 322 321 322 323 324 324 324 323 323 323 323 324 325 325 325 326 326 325 326 325 325 324
324 325 326 326 326 326 327 326 326 328 326 324 324 322 322 323 324 324 324 324 325 325 324 323 322 323 323 324 325 326 325 324 323 323 323 324 323 323 323 323 322 322 322 322 322 322 323 323 322 323 322 321 319 317 317 318 318 317 317 317 318 321 322 321 321 322 322 322 322 322 323 324 323 323 323 324 324 325 325 325 325 325 325 326 325
324 325 325 326 326 326 327 326 326 328 326 325 324 322 322 323 324 324 324 324 324 324 324 323 323 323 323 324 325 325 325 323 322 322 322 323 323 322 322 322 322 322 321 321 321 322 322 321 322 322 321 319 317 317 317 318 316 315 314 315 317 319 321 321 321 321 320 319 318 320 321 322 323 323 323 324 324 325 325 325 325 325 325 325 324
324 325 325 325 326 326 326 326 325 326 326 325 325 323 322 323 324 324 324 324 324 324 324 325 325 324 324 324 325 325 324 323 322 322 323 323 323 323 323 322 322 321 321 320 320 321 322 322 322 321 320 318 317 317 317 316 315 313 311 310 314 318 320 320 320 319 319 317 317 318 320 321 321 321 322 321 321 321 321 321 321 322 322 322 323
325 325 325 325 326 326 326 326 325 325 325 324 324 324 322 322 324 324 324 324 325 325 325 325 326 325 324 324 324 324 324 323 322 323 323 323 323 324 323 321 320 320 320 320 320 320 320 320 320 320 318 317 317 317 316 315 312 309 307 306 310 316 318 318 318 318 317 317 316 317 318 319 319 319 319 318 317 316 315 315 315 316 317 318 319
324 324 325 325 326 326 326 326 325 325 325 324 323 324 323 322 323 324 324 324 325 326 326 326 326 325 324 324 323 324 323 322 322 323 323 323 323 323 322 320 320 319 318 318 318 317 316 316 316 317 316 316 316 316 314 311 308 306 305 304 307 312 314 315 315 315 315 315 316 316 317 318 318 318 318 316 314 312 312 312 312 313 313 314 315
323 324 324 325 325 325 325 324 325 325 325 324 324 324 323 322 323 324 324 323 324 326 326 326 326 325 325 324 323 324 324 323 322 322 322 323 324 323 321 320 319 317 316 315 314 314 314 314 314 315 315 315 314 313 310 307 306 305 304 303 304 307 309 310 310 309 310 310 311 312 313 314 314 314 314 313 311 309 308 309 310 311 310 310 310
323 323 323 323 323 324 323 323 323 324 324 324 324 323 321 321 322 323 323 323 323 324 326 326 326 325 325 325 324 324 324 323 322 322 322 322 323 322 321 319 318 316 314 312 310 310 311 312 313 313 312 310 309 308 307 306 306 306 305 304 303 304 304 305 305 305 304 305 305 306 307 307 307 308 307 307 306 305 305 305 306 307 307 306 306
322 322 321 321 322 322 322 322 322 323 323 323 322 322 321 321 322 322 322 322 322 322 324 326 326 325 325 325 324 324 324 323 323 323 322 322 322 322 321 319 318 316 312 309 308 308 308 309 309 309 307 306 306 307 306 306 306 306 305 305 304 304 304 304 305 305 305 305 305 305 305 305 305 305 305 304 304 304 304 304 304 304 304 304 304
319 320 320 320 320 321 321 321 322 322 322 322 322 321 321 322 322 322 322 322 322 321 322 324 325 325 326 326 325 323 323 323 323 322 322 322 322 321 321 319 318 315 311 308 308 308 307 306 306 306 306 306 306 306 306 306 306 306 305 305 305 305 306 306 306 306 306 306 306 306 306 307 306 306 306 306 306 306 306 305 305 305 305 305 305
316 316 316 317 318 320 320 321 321 321 322 323 323 322 322 322 322 323 323 324 323 322 322 323 323 324 325 326 325 324 323 323 322 322 321 321 321 321 320 319 317 314 310 308 308 308 308 307 307 307 306 306 306 306 306 306 306 306 306 306 306 307 307 307 306 306 305 305 305 305 305 306 306 306 306 306 306 306 306 306 305 305 305 305 305
316 315 315 315 317 319 319 319 319 319 320 322 323 324 324 324 324 324 324 324 324 324 323 323 322 322 324 325 325 324 324 323 322 322 322 321 321 321 320 319 316 312 309 308 309 309 310 309 309 308 308 307 307 307 307 307 307 307 307 307 307 307 307 307 307 306 305 304 303 302 302 303 303 303 303 304 304 304 303 303 303 303 302 302 303
317 317 316 315 315 315 316 316 317 318 319 321 322 322 322 323 324 325 324 322 323 324 324 324 323 322 323 325 324 324 324 324 323 322 322 321 321 320 319 318 315 311 308 308 309 310 310 310 310 309 309 309 308 308 308 308 308 308 308 308 308 308 308 308 308 307 306 305 303 302 302 301 301 301 301 301 301 301 301 301 301 300 300 300 301
318 318 318 316 314 312 313 314 315 318 320 321 321 320 320 322 323 324 322 320 322 323 322 323 323 323 323 324 324 324 324 324 323 323 322 321 321 320 319 317 313 310 308 308 310 310 310 310 310 309 309 309 309 309 308 308 308 308 308 308 308 308 309 309 309 308 307 306 304 303 303 302 301 301 301 301 300 300 300 300 300 300 300 300 300
318 318 317 316 313 311 312 314 315 317 319 320 320 319 320 321 323 323 320 319 320 321 321 321 322 323 323 323 324 324 324 324 324 323 322 321 320 319 319 315 310 308 308 309 309 309 310 310 310 309 309 309 309 308 308 308 308 308 308 308 309 309 309 309 308 307 307 306 305 305 304 304 303 303 302 302 301 300 300 300 300 300 300 300 300
317 316 314 313 312 312 312 313 314 315 316 318 318 319 321 322 322 322 319 319 320 320 320 321 322 322 322 323 323 324 324 324 324 322 321 321 319 318 317 313 308 307 308 308 309 309 309 310 310 309 308 308 309 308 308 309 308 308 308 309 309 308 308 308 308 307 307 307 307 306 306 307 306 306 305 305 304 303 302 302 301 301 300 300 299
317 315 313 312 313 313 312 312 313 314 314 315 316 319 321 321 321 320 319 319 320 320 320 321 322 322 322 322 323 323 323 323 324 322 321 320 317 315 314 311 308 307 308 308 309 309 309 309 310 310 309 308 309 309 309 309 309 308 309 309 309 308 308 308 308 308 308 308 308 308 308 308 308 308 308 307 307 306 305 304 302 301 300 300 299
318 315 313 313 314 314 313 312 312 314 315 315 317 320 321 320 321 320 319 320 320 321 321 322 322 322 322 322 322 322 322 323 323 322 321 317 313 313 312 310 309 309 309 309 309 309 309 309 310 311 309 309 310 310 309 309 308 308 308 309 308 308 307 307 308 309 309 309 309 309 309 309 309 309 309 309 308 308 307 306 304 302 300 300 299
318 315 314 314 314 315 316 315 313 313 316 318 319 321 321 321 321 320 320 321 321 322 322 321 320 320 320 321 321 321 321 322 321 321 319 314 311 311 311 310 310 310 310 310 310 310 310 309 310 311 310 309 309 310 310 309 309 309 309 309 309 308 308 308 308 309 309 309 309 310 309 310 309 309 310 309 309 309 308 307 305 302 300 299 299
318 315 314 314 315 316 317 317 314 312 316 320 322 322 322 321 321 320 321 321 321 321 320 319 316 315 316 317 318 319 320 320 320 319 317 314 312 311 310 311 312 311 311 311 310 310 310 309 310 311 311 309 309 309 310 310 309 309 309 309 309 309 309 309 309 309 309 309 309 310 310 310 310 310 310 310 310 309 309 308 305 302 300 299 299
316 314 313 312 313 314 315 317 315 311 314 319 321 321 320 320 320 320 322 322 320 318 318 318 316 314 315 315 315 316 317 318 319 319 318 316 315 313 312 312 313 313 312 311 310 310 310 310 310 311 312 310 309 309 309 310 309 309 309 309 309 309 309 309 309 309 310 310 310 310 310 310 310 310 310 310 310 309 309 308 305 302 300 299 299
315 312 311 310 310 311 313 316 315 312 313 317 319 319 318 318 320 321 322 320 317 316 315 315 315 315 315 315 315 315 315 316 317 318 319 318 317 316 315 315 314 314 313 312 310 309 310 311 311 311 312 311 309 309 309 310 310 310 310 310 309 309 309 309 309 309 310 310 310 310 310 310 310 310 310 310 310 309 309 307 305 301 300 299 299
315 312 310 308 308 309 311 314 315 313 313 314 316 318 317 316 318 320 321 319 316 315 315 315 314 314 314 314 315 315 315 315 315 316 317 318 319 319 317 316 315 314 313 312 311 309 309 311 312 312 313 311 310 310 310 310 310 310 309 310 309 309 309 309 309 310 310 310 310 310 310 310 310 310 310 310 310 309 309 307 304 301 299 299 298
312 310 309 308 308 308 308 311 313 314 314 313 314 316 317 316 315 316 317 318 318 318 317 317 316 315 315 314 314 314 314 315 314 315 315 316 318 317 316 315 314 314 314 313 312 311 309 310 313 313 313 312 311 310 310 310 310 309 309 309 309 309 309 309 309 310 310 310 310 310 310 310 310 310 310 310 309 309 308 306 303 300 299 298 298
310 309 309 308 308 307 306 307 310 314 315 313 313 315 316 316 315 314 312 313 316 319 319 318 316 315 314 312 312 313 314 314 314 314 314 315 315 314 314 314 314 314 314 314 313 312 310 310 313 314 313 313 312 311 312 311 311 311 310 310 310 309 309 309 309 310 310 310 310 310 310 310 310 310 309 309 309 308 307 304 301 299 299 298 298
310 309 308 308 308 308 307 307 309 312 314 313 313 313 314 314 315 314 311 308 309 314 316 315 313 312 310 309 311 313 313 314 314 314 314 314 313 313 313 313 313 313 314 313 313 312 310 311 313 314 314 313 313 312 313 313 313 312 312 311 311 310 310 310 310 310 310 310 310 310 310 310 310 310 309 308 308 307 306 302 300 299 298 298 297
309 308 308 309 309 310 311 310 309 309 310 311 311 311 311 311 311 311 310 307 306 308 310 311 311 311 310 309 310 312 313 314 314 314 314 313 313 313 313 313 314 314 314 314 313 312 312 313 314 314 314 314 313 313 313 313 313 313 313 313 312 312 312 311 311 310 310 310 310 310 310 310 309 309 308 308 307 306 303 300 299 298 297 297 297
309 308 309 310 310 311 311 311 311 309 308 308 308 309 309 309 309 308 307 305 305 306 308 310 311 312 313 312 312 312 313 313 313 313 313 313 313 313 313 313 314 314 314 314 314 314 314 314 314 314 314 314 314 313 314 314 313 314 313 313 313 313 312 312 311 311 310 310 310 310 310 309 309 308 308 307 306 304 301 299 298 298 297 296 296
308 309 311 311 311 311 311 312 312 312 311 310 309 309 308 308 308 308 307 306 305 306 308 311 312 313 314 314 314 314 314 314 313 313 313 313 313 313 313 313 314 314 314 314 314 314 314 314 314 314 314 314 314 314 314 314 314 314 313 313 313 312 313 312 312 311 311 310 310 310 309 309 309 308 308 307 304 301 299 298 298 297 296 296 296
308 310 313 313 313 313 312 312 313 313 313 313 313 312 310 309 308 308 308 308 307 308 309 311 312 312 313 314 313 313 313 313 313 312 312 312 312 312 313 314 314 314 314 314 314 315 314 314 314 314 314 314 314 314 314 314 314 314 314 314 313 313 313 313 312 312 311 311 310 310 309 309 309 308 307 305 302 299 298 297 297 296 296 296 296
309 311 313 314 314 314 313 313 313 313 313 314 314 314 313 312 311 310 310 309 309 310 310 311 311 312 312 312 312 313 313 312 312 311 311 311 310 310 311 312 313 314 314 314 314 315 315 315 315 315 315 315 315 315 315 314 314 314 314 314 314 314 313 313 313 312 311 311 310 309 309 309 309 308 305 302 299 298 297 297 296 296 296 296 296
311 312 313 314 315 315 314 313 313 313 314 314 314 314 314 314 313 313 313 312 311 311 311 310 310 310 310 310 311 311 311 312 311 311 311 311 311 311 311 312 313 314 315 316 316 315 315 315 315 315 316 316 315 314 314 315 315 315 314 314 314 314 314 313 312 311 311 310 310 309 309 309 308 306 302 299 298 297 297 296 296 296 296 296 296
314 314 314 315 316 316 315 314 313 313 313 314 314 314 313 313 314 314 314 313 313 313 312 312 312 311 311 311 311 311 311 311 311 311 311 311 312 312 312 313 313 314 315 316 316 317 316 316 316 316 315 315 314 313 313 314 315 315 314 314 314 314 314 313 312 311 311 310 309 309 309 308 306 302 299 298 298 297 296 295 295 295 296 296 296
318 317 317 316 316 316 316 315 315 315 314 314 314 314 314 313 313 314 314 314 314 314 314 314 313 313 313 313 313 313 313 312 312 312 313 313 313 313 313 314 314 314 314 315 316 316 317 317 316 315 314 313 313 313 313 313 313 313 313 313 314 314 313 312 311 311 310 310 310 310 308 305 302 299 298 298 297 296 296 295 295 295 295 295 295
320 320 320 319 318 317 317 316 316 316 316 315 315 314 314 314 314 314 314 314 314 314 314 314 314 314 314 314 314 314 314 314 314 314 314 314 314 314 314 314 314 314 315 315 315 316 317 317 317 315 314 313 313 313 313 313 313 312 313 313 313 313 312 312 311 310 310 310 310 308 304 301 299 299 298 297 297 296 295 295 295 295 295 295 295
320 320 320 320 320 319 318 317 317 317 317 317 316 316 316 316 316 316 316 316 315 315 315 315 314 314 314 314 314 314 314 314 314 314 314 314 315 315 315 315 315 315 315 316 316 317 317 317 317 316 315 314 314 314 314 314 313 313 313 313 312 312 312 311 310 310 311 310 307 304 301 299 299 298 298 297 296 295 295 295 295 295 295 295 295
317 318 318 318 319 319 319 318 318 318 318 318 318 318 318 318 318 318 318 318 318 317 317 316 316 316 315 315 315 315 315 315 315 315 315 315 315 315 316 316 316 316 316 316 317 317 317 317 316 315 314 313 313 314 314 314 314 313 312 312 311 311 310 310 310 310 308 306 303 300 299 299 298 298 297 296 296 295 295 295 295 295 295 295 295
312 313 314 315 317 318 318 319 319 319 319 319 319 319 319 319 319 319 319 319 319 319 319 318 318 318 317 317 317 317 316 316 315 315 315 315 315 315 316 316 316 316 316 316 316 316 315 314 313 313 313 313 313 313 314 314 313 312 312 311 310 309 309 309 308 306 303 301 299 299 298 298 297 297 296 295 295 295 295 295 295 295 295 295 295
Wind_Speed
9 9 8 8 7 6 5 4 4 3 3 3 4 5 5 6 7 8 8 8 9 12 13 12 10 8 6 4 4 4 4 6 6 5 5 6 6 6 6 5 5 4 2 3 4 6 7 5 4 3 3 4 4 4 4 5 6 6 7 7 8 7 6 6 6 6 6 6 6 6 6 6 6 7 7 8 8 9 10 10 10 11 12 12 12
8 7 7 6 6 6 4 3 4 3 3 3 4 5 6 6 7 7 7 7 7 9 11 11 9 7 5 3 2 3 4 6 6 5 5 5 5 5 6 5 4 3 4 5 6 7 7 5 5 5 5 5 5 6 7 7 8 9 10 10 10 10 9 8 7 7 6 6 6 6 6 6 6 6 6 7 7 8 9 9 10 10 11 11 12
8 7 5 5 5 5 4 3 4 5 5 4 5 6 6 6 6 7 6 6 6 7 8 9 9 8 5 3 2 3 4 5 5 5 4 3 4 4 5 5 5 6 6 7 8 7 7 6 6 7 8 8 9 10 11 11 12 12 13 13 13 13 12 11 10 9 9 8 7 7 6 6 6 6 6 7 7 7 8 9 9 10 10 11 11
7 6 5 4 4 5 5 4 4 6 6 6 6 6 6 7 7 7 6 6 6 6 6 7 8 8 6 5 3 4 5 6 6 5 4 3 4 5 6 6 7 8 9 10 11 10 8 7 7 9 12 14 14 14 14 13 14 14 14 14 14 13 13 13 12 11 11 10 10 9 8 7 7 7 7 7 7 7 8 8 9 9 10 10 11
7 6 5 5 5 6 5 4 4 5 6 6 6 7 7 8 8 7 6 6 5 5 5 5 6 6 6 5 5 6 6 7 7 6 5 4 5 6 7 7 8 9 10 12 13 12 12 11 9 11 13 14 13 12 11 11 11 11 12 12 12 11 11 12 12 12 12 12 12 11 10 9 9 8 8 8 8 8 8 8 8 9 9 10 10
6 6 6 5 5 6 6 5 4 5 6 6 6 7 7 7 8 7 6 6 5 5 4 4 5 6 6 6 7 8 7 6 7 7 7 6 6 7 8 8 9 10 11 11 11 12 12 11 10 10 10 10 9 8 7 7 6 6 8 8 8 8 9 10 10 11 11 12 12 12 11 10 10 9 9 9 9 8 8 8 8 8 9 9 10
7 7 7 6 6 6 5 5 5 5 6 6 6 7 8 8 7 6 6 7 6 5 4 5 6 6 6 6 6 6 6 6 7 7 8 8 7 8 7 8 8 9 10 10 9 9 9 7 7 7 8 8 7 5 5 4 4 4 5 5 5 6 7 8 8 9 9 10 10 10 10 10 10 10 10 10 10 9 9 9 9 9 9 9 10
7 7 7 7 7 6 6 6 6 6 6 7 7 8 9 9 9 7 5 6 6 5 6 7 7 7 6 6 6 5 5 7 7 8 9 8 8 7 7 7 7 7 8 8 6 6 6 5 4 5 5 6 5 4 4 4 4 4 3 3 4 5 6 5 5 6 6 6 7 7 7 8 8 9 10 10 10 10 10 9 9 9 9 9 9
7 8 8 8 7 6 6 6 6 7 7 8 8 9 9 9 9 9 6 6 6 6 9 10 9 9 9 7 7 7 7 8 7 7 8 8 7 6 6 6 5 6 7 7 6 5 5 4 5 5 4 5 5 4 4 4 4 4 4 4 5 4 4 5 5 5 5 5 6 6 6 7 7 8 9 9 10 10 10 9 9 9 9 9 8
8 8 9 9 8 8 7 6 7 8 7 8 9 10 10 9 8 9 9 7 7 9 11 11 11 11 11 10 10 9 8 7 7 6 7 7 6 6 5 5 5 5 5 6 5 5 4 4 4 4 4 4 4 5 4 4 5 5 5 6 5 5 4 5 5 5 6 6 6 6 6 7 7 7 7 8 8 8 8 9 9 9 8 8 8
8 9 9 9 8 8 7 7 9 8 7 8 9 10 10 10 8 9 11 11 9 10 11 11 12 11 11 11 11 10 8 7 7 7 7 7 6 6 5 4 4 4 3 4 4 4 3 3 2 3 4 4 4 4 4 5 5 6 6 6 6 6 6 5 5 5 5 5 5 5 5 6 6 6 7 6 6 6 6 7 8 8 8 8 8
7 8 9 10 9 8 8 9 10 9 8 8 9 9 10 11 10 9 12 14 12 11 10 11 12 13 12 12 12 11 9 8 7 7 6 6 6 5 5 4 3 3 2 3 2 1 0 1 2 3 4 4 4 5 5 5 5 6 6 5 6 7 6 5 5 5 5 5 6 6 6 5 5 5 6 5 5 5 5 5 7 7 8 8 8
6 6 9 11 10 9 9 9 9 9 9 9 9 9 10 12 11 10 12 14 13 11 10 11 13 15 14 13 12 11 10 8 7 7 6 5 6 6 4 3 4 4 3 3 1 1 1 0 1 2 3 4 5 6 7 7 7 7 7 6 6 6 6 7 7 6 5 5 6 6 6 5 4 5 5 5 5 5 5 4 5 6 7 7 7
6 7 9 10 9 8 9 9 9 10 10 10 10 10 11 12 11 11 12 12 13 13 12 13 13 14 14 14 13 11 10 9 8 8 7 7 8 7 6 6 7 7 6 5 4 4 4 3 3 4 4 6 6 7 8 9 9 9 8 8 7 6 8 8 7 7 7 7 6 6 6 5 4 4 4 4 4 4 5 5 5 6 7 8 8
7 7 8 8 7 7 8 9 9 10 10 10 11 11 12 13 11 10 11 12 13 13 13 13 12 12 12 12 12 13 12 10 10 11 10 10 10 9 8 8 8 8 7 7 6 6 6 6 5 6 6 6 7 8 9 9 9 10 10 10 9 8 10 10 9 8 10 10 9 8 7 7 6 4 2 2 3 3 4 5 5 5 6 8 8
7 7 7 8 8 8 9 9 9 9 10 10 10 11 12 12 12 11 10 10 12 14 14 12 10 10 11 11 12 13 12 12 13 14 12 11 11 10 9 9 8 8 8 7 7 7 7 7 7 7 7 6 7 8 9 9 9 10 10 10 9 9 10 11 11 11 12 12 13 13 12 11 10 9 6 5 4 4 4 5 5 5 6 7 8
6 6 7 8 8 9 9 9 9 9 10 10 9 10 12 12 12 12 10 8 9 12 13 12 10 9 10 11 11 9 12 15 14 13 11 10 10 10 10 10 10 10 9 9 9 9 9 8 8 7 7 7 8 9 8 9 9 9 9 8 9 9 10 11 11 12 12 13 14 15 15 15 14 13 12 11 10 9 8 8 7 7 8 8 8
6 7 7 8 8 8 8 9 9 9 11 11 10 11 12 12 12 13 11 8 7 9 12 12 11 10 9 9 7 6 11 17 14 12 12 9 9 10 10 11 11 10 10 11 11 10 10 9 8 7 7 8 8 8 8 8 8 8 7 7 8 8 9 10 10 11 11 12 13 13 14 14 14 14 13 13 13 12 11 11 10 9 10 10 10
7 7 7 8 8 7 7 8 9 9 11 12 11 11 12 13 12 12 12 10 8 9 10 12 11 11 11 9 5 3 9 14 12 13 14 11 9 9 11 11 11 11 11 12 12 11 10 9 9 8 8 8 8 7 7 8 8 7 7 7 7 7 8 8 9 9 9 9 10 10 11 11 11 11 11 11 11 11 11 10 10 10 10 10 10
8 7 7 8 8 7 7 8 8 9 11 11 11 11 13 14 12 13 13 11 9 8 9 11 11 10 11 11 7 4 9 13 11 11 13 15 13 11 12 13 12 12 12 12 11 10 9 9 9 8 8 7 6 6 6 7 7 7 7 7 7 7 7 7 7 7 7 7 8 8 8 9 9 9 9 9 9 9 9 9 9 9 9 9 9
8 7 7 7 8 7 7 7 7 8 10 11 11 12 14 14 13 13 13 12 11 10 9 10 10 9 10 12 9 6 10 14 13 11 12 15 15 14 14 14 12 12 11 10 10 9 8 8 8 7 7 6 6 6 6 7 7 7 8 8 8 8 8 8 8 8 8 8 8 9 9 8 8 8 8 8 9 9 9 8 8 8 8 8 8
8 8 8 7 7 7 7 7 8 9 10 10 11 12 13 13 13 12 12 12 11 11 11 11 9 9 10 11 10 8 11 15 16 13 12 11 13 16 15 13 12 12 11 10 10 10 9 9 8 7 7 7 8 8 8 8 8 8 9 10 10 10 10 10 10 10 10 10 10 10 9 9 9 9 9 9 9 9 9 9 8 8 9 9 9
9 8 7 7 7 7 7 7 8 8 8 9 10 10 11 12 13 12 11 11 11 12 13 12 11 11 11 11 10 9 8 11 14 14 13 10 12 17 16 12 11 10 11 11 10 10 11 10 10 9 9 10 10 10 10 9 9 10 11 11 11 11 11 11 11 11 11 10 10 9 9 9 8 8 8 8 8 8 8 8 9 9 9 9 9
8 7 6 6 6 7 7 7 7 6 5 7 8 9 10 11 11 10 10 10 11 12 12 13 13 12 12 11 10 8 7 7 9 11 12 9 9 16 17 13 11 10 11 10 10 11 11 11 11 10 10 10 11 11 10 10 10 10 10 10 11 11 12 12 12 12 12 12 11 10 9 8 8 8 7 7 7 8 8 8 8 9 9 9 9
7 7 6 6 6 7 6 7 7 5 5 7 8 8 8 9 9 9 8 8 9 10 11 12 12 12 12 12 10 9 9 9 8 8 10 9 9 14 16 13 11 11 11 10 10 11 11 10 10 10 9 9 10 10 9 9 9 9 10 10 10 10 11 12 13 13 14 14 14 13 11 10 10 9 9 9 8 8 8 8 9 9 9 10 10
6 7 7 6 5 6 7 7 8 7 7 8 7 6 6 7 8 8 7 7 7 8 9 11 12 12 12 12 11 9 10 11 9 8 10 9 9 12 15 14 11 10 11 11 10 9 9 9 9 9 8 8 8 8 8 8 8 8 8 8 8 8 8 9 10 12 13 14 15 15 14 12 11 11 12 12 12 12 12 12 12 12 12 12 12
3 3 3 2 4 5 7 8 8 8 8 9 7 5 5 7 8 8 7 7 7 8 8 9 11 12 12 13 13 11 11 11 9 8 8 8 8 10 12 13 14 12 11 10 9 8 8 8 8 8 7 7 7 7 7 7 6 6 6 6 6 5 6 7 8 9 10 12 14 15 15 14 13 12 13 13 14 14 14 15 15 15 15 15 14
2 1 0 1 2 5 7 6 7 7 8 8 7 5 6 7 8 9 8 7 8 9 9 10 10 11 13 14 14 13 12 10 9 8 8 7 7 8 9 8 11 14 14 11 10 9 8 7 7 7 7 7 7 7 7 6 5 4 4 4 5 5 6 7 7 8 9 11 12 14 15 15 15 15 15 15 15 16 16 17 17 17 18 17 17
2 1 1 2 2 4 5 5 5 6 7 8 7 5 6 7 9 9 8 8 9 9 9 9 10 10 12 14 14 15 13 11 10 9 9 8 7 7 6 5 5 10 15 15 12 10 9 7 6 6 7 7 8 7 7 6 5 5 4 4 5 5 5 5 6 8 10 11 12 14 15 16 17 18 18 18 19 19 20 21 21 21 21 20 19
1 1 1 3 3 3 3 3 3 4 5 6 7 7 7 7 8 8 8 9 9 9 8 8 9 10 11 13 14 14 14 12 12 11 10 8 7 7 6 4 3 4 9 14 13 11 9 7 6 6 6 7 8 7 7 6 6 6 5 4 3 4 3 3 5 7 9 10 12 14 16 17 18 19 20 21 22 23 24 25 25 24 24 23 22
1 2 1 2 2 1 1 2 2 3 4 5 7 8 7 6 6 7 7 8 9 8 8 8 8 9 9 10 12 13 13 13 13 13 11 9 8 9 7 5 4 2 3 8 10 9 9 8 6 5 5 6 7 7 6 6 6 6 4 2 2 3 3 2 4 6 7 9 11 13 15 17 18 19 21 23 24 26 27 28 28 27 27 26 24
1 2 1 2 1 1 1 0 1 3 4 5 7 8 7 6 6 6 7 8 9 9 8 8 8 8 8 9 10 11 12 13 14 14 12 10 10 10 9 6 5 4 2 2 3 4 8 9 6 5 5 7 7 6 6 6 6 5 3 2 1 1 1 2 4 5 7 9 11 13 14 16 17 19 21 23 25 27 28 29 29 29 28 26 25
1 2 1 1 1 1 1 1 1 3 5 6 7 7 7 6 6 6 7 8 9 9 9 10 10 10 9 9 9 11 11 12 14 14 13 13 11 11 11 9 6 6 5 4 2 1 6 9 8 7 7 8 8 7 6 6 6 5 3 3 2 3 4 5 6 7 8 9 11 12 13 15 17 19 21 23 25 26 28 29 29 29 28 26 25
1 1 1 1 1 1 1 3 3 3 6 7 6 6 6 6 6 6 7 8 8 8 10 10 10 9 8 8 7 9 9 10 13 14 13 13 12 11 12 11 9 9 8 8 7 4 4 6 8 8 8 8 9 9 8 7 6 5 4 4 4 5 7 8 8 9 10 10 11 12 13 15 17 19 21 22 24 26 28 29 29 29 28 26 25
2 2 2 2 2 2 2 4 4 4 6 7 7 6 6 5 5 6 7 8 7 7 8 8 8 8 7 6 6 7 8 8 10 12 13 13 12 12 13 12 11 11 11 11 11 9 6 5 8 9 8 8 10 10 9 9 8 7 6 6 6 7 9 10 11 12 12 12 12 13 14 16 18 19 20 22 24 26 28 29 29 29 28 26 25
3 4 4 4 4 4 3 4 5 5 5 7 7 7 6 6 5 6 7 8 7 7 7 6 7 7 6 6 6 6 8 8 9 11 12 13 13 13 13 13 13 12 13 13 14 13 10 7 8 10 9 8 10 11 11 11 11 10 10 10 9 10 11 12 13 13 13 13 14 15 16 17 18 19 21 22 25 27 28 29 29 28 27 26 24
5 5 6 6 5 5 5 6 6 6 5 6 7 7 8 7 6 6 7 9 10 9 9 8 8 8 9 9 9 8 9 9 9 10 12 14 14 13 13 12 12 12 14 15 16 16 15 11 9 9 10 10 11 12 13 13 13 13 13 14 13 13 14 14 14 14 14 15 16 16 17 18 19 20 21 23 25 27 28 29 29 27 26 25 23
6 6 7 6 5 5 5 6 7 7 6 5 6 7 8 8 7 7 8 9 11 12 11 10 10 10 11 11 11 10 10 10 10 10 11 13 13 12 12 11 12 12 13 14 16 17 17 14 11 11 11 11 11 13 13 13 14 15 15 16 16 16 16 16 16 16 16 17 17 17 18 18 19 21 22 23 25 26 28 29 28 26 25 24 23
6 6 6 5 4 4 3 4 5 7 7 6 5 6 7 8 8 8 8 8 10 12 11 10 9 9 9 11 12 12 11 11 11 11 11 11 11 12 12 11 11 11 12 13 15 16 16 15 14 13 12 12 13 14 13 13 14 16 16 17 17 17 18 18 17 18 18 18 18 18 18 19 20 21 22 23 25 27 28 28 27 26 25 24 22
6 6 6 6 6 5 4 3 3 4 6 6 6 6 6 7 8 9 9 9 9 10 10 9 9 8 8 10 12 13 13 13 13 12 12 12 13 13 12 11 11 10 11 11 12 14 15 15 16 15 14 14 15 15 15 16 16 17 17 17 18 18 19 19 19 19 20 20 20 19 19 20 20 21 22 23 25 27 28 27 26 25 24 23 22
7 7 7 7 7 5 3 2 1 1 2 3 5 5 6 6 7 8 8 9 10 10 10 9 10 10 9 9 11 12 13 14 14 14 13 13 12 12 12 12 12 11 11 11 12 13 15 16 16 15 15 16 16 16 17 18 18 18 18 19 19 20 20 20 20 21 21 21 21 20 20 20 20 21 23 25 26 27 27 26 26 25 24 23 23
9 9 8 8 7 5 4 3 2 1 2 2 1 2 4 6 7 7 7 8 10 11 11 11 11 12 11 11 11 12 13 13 13 14 14 13 13 13 12 12 12 12 13 14 15 16 17 17 17 17 17 18 18 18 18 19 19 19 20 21 22 22 22 22 22 22 23 23 21 20 20 21 21 23 24 25 26 27 26 26 25 25 24 24 24
11 11 9 8 7 6 5 4 3 1 1 1 2 1 1 3 5 7 7 8 10 11 12 12 12 13 13 13 12 13 13 14 15 15 15 16 16 15 15 15 14 15 15 16 17 18 18 19 18 18 19 19 19 19 20 20 21 22 22 23 24 24 24 24 24 24 23 23 22 21 21 22 23 24 25 25 25 25 25 24 24 24 24 24 24
13 12 10 9 8 8 7 6 5 4 3 2 2 1 1 2 3 5 6 8 10 11 12 12 12 13 13 14 14 14 15 16 16 17 17 17 18 18 18 18 17 18 18 19 19 20 20 20 20 20 21 21 20 20 20 21 22 23 24 25 26 26 26 25 24 24 23 23 23 22 21 22 24 25 25 25 25 24 24 24 24 24 24 24 24
15 14 12 11 10 9 8 8 7 7 7 7 7 7 7 7 6 6 6 6 8 9 10 12 12 13 13 14 15 16 17 18 18 19 19 19 19 19 19 19 19 20 20 20 21 21 22 22 22 23 23 22 21 20 20 21 22 23 24 26 27 27 26 25 24 24 24 23 22 22 22 23 24 24 24 24 23 23 23 23 24 25 25 25 25
16 15 14 13 12 11 10 10 10 10 10 10 10 11 11 11 11 11 10 10 10 10 10 11 12 12 13 13 14 15 16 17 18 19 19 20 20 21 21 21 21 22 22 22 22 22 22 23 24 24 23 22 21 20 20 21 22 23 24 25 25 26 26 25 25 24 24 23 22 22 23 24 23 22 22 22 22 21 22 23 24 25 25 25 26
16 15 15 15 15 14 13 12 13 13 13 13 13 13 14 14 14 14 14 15 15 15 15 15 15 15 15 16 16 16 17 18 18 19 20 20 21 22 23 23 24 24 24 25 25 25 25 25 25 24 23 22 22 22 22 23 23 23 25 25 24 24 24 25 25 25 24 23 23 23 23 23 22 21 21 21 21 21 22 23 24 24 24 24 26
15 14 15 15 16 16 16 15 15 15 15 15 15 15 16 16 16 17 17 18 18 19 19 20 21 21 21 21 21 21 21 21 21 22 23 24 25 25 26 26 26 27 27 28 28 28 28 29 30 27 25 24 24 24 25 26 25 24 26 27 26 26 26 26 25 24 23 23 23 23 22 22 21 20 19 20 20 21 21 22 22 22 23 24 26
12 13 14 14 15 16 16 16 17 17 17 17 17 18 18 18 19 20 20 21 21 22 22 23 24 25 25 26 27 27 27 26 26 26 28 29 29 30 30 30 30 31 31 32 32 32 32 32 31 29 28 27 28 27 28 28 27 26 27 29 29 28 27 26 24 23 22 23 23 22 21 20 19 19 19 20 21 21 21 21 20 21 23 25 25
10 11 11 12 13 14 14 15 16 17 18 18 19 20 21 22 22 23 24 24 25 25 26 26 27 27 28 28 29 30 31 30 30 31 32 33 33 34 33 33 34 34 34 35 35 34 32 32 31 31 32 33 33 32 30 29 28 26 27 27 27 26 25 24 22 22 21 21 20 20 19 18 18 19 20 21 22 21 20 19 20 22 24 24 24
8 8 9 10 12 13 13 15 16 17 18 19 20 21 22 23 24 24 25 27 27 28 29 29 30 30 30 31 31 32 33 32 32 34 34 34 35 35 34 35 37 37 37 37 37 35 35 36 37 36 34 33 33 31 29 27 26 26 25 24 23 24 23 22 21 21 19 19 18 18 17 18 18 19 20 21 22 21 20 19 21 23 24 24 23
Wind_Direction
149 142 144 148 149 150 150 157 162 160 151 135 123 125 141 165 177 178 172 167 172 178 182 185 183 178 169 156 127 109 97 97 97 88 78 69 73 79 84 96 105 101 68 41 52 87 108 110 104 90 76 66 59 52 45 41 38 39 39 39 40 40 37 35 37 37 41 43 43 46 48 52 53 54 54 53 53 53 53 50 46 46 46 47 47
153 144 144 148 152 155 155 160 176 181 173 161 151 146 149 162 174 173 168 167 171 180 187 191 189 188 186 176 120 111 114 114 110 95 80 72 80 85 89 96 103 93 66 69 81 92 93 85 78 74 70 69 66 62 60 60 58 56 55 53 53 52 50 45 41 37 35 36 35 38 40 43 44 46 48 49 49 49 49 48 45 43 43 44 43
158 155 153 152 158 165 166 166 184 193 187 179 165 158 159 164 169 168 168 171 175 180 186 196 202 205 207 199 154 140 139 130 121 108 92 78 86 87 92 95 88 84 78 81 92 96 86 70 66 76 83 80 78 77 74 72 70 67 64 62 61 59 58 54 51 47 41 37 34 33 35 39 40 40 42 44 46 47 46 43 42 40 39 40 40
161 164 167 168 173 182 183 169 181 192 191 185 171 166 172 174 171 166 167 172 178 181 180 191 199 203 203 195 183 176 162 146 136 128 116 95 91 87 90 87 78 86 88 85 92 99 99 88 75 81 89 85 81 79 77 74 70 69 67 63 62 62 62 59 57 55 51 47 43 42 41 40 40 40 39 41 45 47 46 43 41 38 36 35 37
167 169 174 175 180 189 187 172 171 182 186 186 175 170 171 175 178 175 175 176 178 176 177 183 180 182 187 191 199 195 181 165 150 136 123 105 97 91 88 83 83 94 98 94 94 96 95 95 95 96 94 87 80 75 70 68 63 61 60 57 57 58 59 58 56 54 52 49 46 45 45 44 44 42 42 42 43 43 42 41 38 36 35 33 33
175 173 176 174 176 181 180 174 169 171 181 184 173 166 162 164 174 177 174 173 171 167 172 170 156 158 169 182 196 195 188 171 148 132 123 113 105 98 91 91 93 98 103 102 96 91 87 88 96 99 90 81 78 71 61 57 49 41 43 46 48 49 50 49 47 46 45 45 43 42 42 42 42 39 36 35 36 37 35 33 33 32 33 32 31
181 179 180 180 180 180 176 179 180 175 182 183 171 162 156 149 153 163 163 162 161 154 147 142 142 151 166 179 190 194 183 159 139 128 123 115 108 102 99 100 101 102 104 101 93 89 91 93 96 93 81 73 69 60 52 45 31 24 25 27 34 39 39 38 39 36 36 38 38 39 38 36 36 34 31 29 28 28 26 26 28 29 30 30 29
184 185 188 187 188 188 179 180 188 186 183 182 174 162 156 148 142 147 159 164 158 143 131 130 138 152 163 174 180 178 160 141 130 126 121 115 108 104 101 100 101 107 107 105 104 103 101 102 95 85 77 64 51 37 32 24 15 11 3 5 18 19 7 7 19 19 18 20 20 22 28 27 25 23 22 22 23 22 19 21 25 28 30 31 30
189 193 196 192 190 193 187 185 190 189 182 179 175 163 155 155 151 150 156 165 159 143 134 132 135 142 141 143 149 144 137 135 136 134 126 121 116 111 108 104 105 111 112 116 122 115 105 103 93 81 74 65 51 36 25 19 11 355 351 6 16 17 353 339 348 348 341 342 343 346 355 359 2 8 9 9 14 18 19 21 23 27 30 33 34
196 198 202 199 193 193 198 199 193 188 183 180 175 165 156 157 163 158 150 146 147 142 136 133 133 135 133 132 137 135 132 139 144 142 139 136 133 132 127 120 120 115 113 120 120 112 104 96 82 64 55 56 41 25 14 5 351 339 353 3 360 8 0 340 341 339 333 328 318 319 329 332 335 349 356 359 4 12 20 26 26 25 28 32 36
202 203 205 203 200 201 203 196 191 189 186 181 176 169 160 155 162 163 149 138 138 140 138 138 138 135 133 132 133 132 131 138 143 145 148 151 151 153 157 155 145 134 126 129 123 114 101 72 42 17 19 24 18 17 8 360 347 339 352 352 342 353 354 342 340 338 330 321 312 313 320 319 318 322 330 344 356 2 15 28 33 27 25 29 32
205 208 206 205 206 204 195 186 187 188 184 182 177 173 165 157 157 162 150 139 139 143 144 146 142 136 130 126 125 126 127 130 135 138 141 147 152 161 173 168 154 153 160 163 155 97 9 331 339 351 7 14 21 29 25 24 18 9 12 5 355 0 358 358 5 355 337 324 317 312 309 309 310 305 303 315 335 345 355 11 23 19 18 23 23
199 200 197 201 204 198 189 183 183 182 178 176 175 173 169 163 157 157 151 143 143 146 149 151 146 139 133 127 124 123 122 120 123 128 130 132 138 148 150 119 114 124 136 161 170 68 87 7 6 18 36 39 35 39 42 44 42 36 33 30 25 19 18 24 27 20 11 0 347 331 318 310 303 295 296 305 316 327 332 340 354 354 358 8 8
192 186 185 194 201 195 188 183 183 185 181 174 175 175 171 166 161 157 153 148 148 151 155 158 152 145 141 133 126 122 121 121 123 124 125 121 120 125 117 96 101 108 108 115 110 90 93 92 77 69 64 55 46 47 51 51 50 48 46 45 44 35 34 41 39 34 36 36 25 7 357 349 331 307 300 312 318 321 325 330 337 336 336 340 345
190 185 184 190 197 193 188 187 187 188 186 180 177 178 174 168 165 164 158 154 156 158 160 164 159 150 147 140 133 130 126 126 126 120 116 113 108 107 103 95 97 97 92 97 100 94 92 90 84 79 71 62 55 56 59 58 55 53 52 53 53 44 41 49 53 55 54 51 45 37 34 32 26 19 352 343 351 340 334 334 328 327 325 322 326
183 182 182 184 185 187 190 190 186 184 185 185 181 181 180 173 169 173 171 163 162 163 163 165 165 160 156 148 142 139 133 133 130 119 112 108 103 102 101 97 93 89 87 93 99 97 93 90 90 85 77 69 66 67 68 66 59 50 48 51 53 49 48 55 60 61 57 51 50 53 55 55 54 55 58 51 41 29 17 6 352 351 349 335 327
174 176 179 180 183 186 188 187 185 185 183 183 183 184 187 182 177 179 181 177 168 166 165 165 169 174 170 156 149 153 150 147 139 122 116 112 104 101 99 96 93 90 91 96 99 98 95 92 90 84 75 72 73 75 71 64 55 44 40 46 52 52 55 60 62 58 54 51 53 56 58 59 61 62 63 62 59 55 50 45 40 35 32 26 18
171 173 178 181 185 189 190 186 182 181 180 182 186 187 189 188 185 183 183 186 184 176 171 170 174 179 184 172 161 178 170 159 151 136 129 121 109 106 101 96 93 91 91 95 95 91 91 90 87 83 79 80 80 74 64 52 45 40 40 47 56 59 58 58 57 53 50 51 53 55 56 57 57 58 57 54 52 50 48 47 45 42 41 40 37
172 173 178 181 185 189 191 187 181 179 180 185 189 188 189 188 185 184 181 183 191 192 184 180 182 183 187 188 177 192 186 177 171 159 148 139 129 118 111 105 100 99 99 98 96 92 92 92 92 92 88 85 79 66 52 43 40 41 49 59 65 66 63 58 53 49 47 48 51 52 53 52 50 48 44 41 38 38 37 37 36 33 30 29 27
170 171 175 179 184 188 189 186 183 182 182 185 188 185 185 185 184 183 182 183 187 197 200 195 194 194 194 196 196 188 191 192 190 184 167 152 146 136 124 119 114 110 106 100 99 100 102 102 102 100 94 84 75 61 48 44 47 54 62 69 70 67 63 57 50 45 43 44 46 47 48 46 43 38 33 29 27 26 27 27 26 22 16 13 11
172 170 171 175 179 182 187 189 185 183 181 180 181 180 181 184 186 185 186 189 189 193 202 206 208 210 206 204 207 200 193 194 192 194 183 161 154 151 139 132 128 119 108 102 101 104 109 111 109 103 96 84 76 70 64 63 66 70 72 71 71 69 64 61 57 53 51 50 49 48 47 44 40 36 31 27 24 21 21 19 17 12 6 3 1
179 178 175 174 175 176 180 185 185 185 184 181 180 180 181 184 187 189 191 196 198 196 196 200 207 218 221 216 215 209 197 195 194 196 192 174 162 158 151 146 142 127 113 107 102 103 105 108 107 100 93 88 86 85 81 81 81 80 80 77 75 74 70 66 62 58 54 51 49 47 45 42 40 37 34 31 28 24 21 17 14 10 6 3 1
183 184 180 176 175 175 173 175 179 182 185 184 182 182 182 184 186 190 195 200 202 200 197 196 199 208 220 224 222 219 210 201 202 203 197 186 169 162 160 157 151 135 121 114 105 102 102 102 101 97 95 93 93 93 90 90 90 87 85 83 80 77 74 69 64 59 55 50 46 43 39 36 33 30 28 25 22 20 16 13 9 5 3 359 357
175 180 183 184 183 182 177 175 174 170 173 179 179 181 184 187 191 192 198 202 201 202 202 201 199 199 207 218 216 214 220 214 210 210 206 207 186 167 163 162 157 145 134 125 113 108 106 104 101 96 97 97 96 95 95 96 95 94 93 91 88 83 78 74 68 62 58 53 49 44 40 36 33 29 25 21 17 12 9 5 2 359 356 352 349
153 158 164 172 180 189 190 191 188 174 163 170 171 174 182 188 192 196 197 200 200 203 206 205 203 197 198 207 207 199 207 214 219 217 207 210 199 173 164 166 166 153 144 136 123 116 112 109 106 100 99 99 98 98 99 101 100 102 102 98 93 89 85 78 71 65 61 57 52 48 44 41 39 39 36 33 27 21 15 9 5 2 358 355 350
137 146 152 150 154 174 189 195 195 183 167 166 165 165 179 185 188 192 192 193 193 194 198 199 200 199 198 202 204 199 205 215 224 225 210 205 202 185 170 164 165 158 148 143 132 123 120 117 112 109 106 103 104 104 103 105 107 108 107 102 99 95 88 80 70 64 60 56 53 50 48 43 40 38 36 33 29 25 20 15 10 6 2 360 356
121 132 145 132 121 146 170 184 186 181 172 174 178 179 189 193 191 192 192 194 192 187 192 194 194 198 198 198 203 204 207 216 225 224 217 213 209 204 190 171 163 160 157 151 143 136 131 127 119 114 114 113 113 113 112 112 113 112 110 108 104 96 88 79 67 60 56 52 50 50 50 48 44 39 34 29 25 22 18 14 10 6 1 357 353
87 79 117 102 109 135 152 170 181 183 183 188 196 200 197 197 197 195 194 195 194 192 194 193 189 191 194 197 203 205 205 210 216 214 216 222 222 220 217 199 174 165 163 161 159 155 146 137 131 123 124 129 128 125 124 123 124 123 122 117 108 104 100 83 66 59 53 46 42 41 41 40 37 34 30 26 23 21 18 14 10 6 2 357 352
59 27 125 132 131 135 141 161 182 188 192 195 199 194 186 187 189 189 191 195 196 197 195 194 192 191 194 198 200 203 203 199 198 203 209 220 231 228 226 240 221 177 166 166 166 163 156 148 142 134 133 140 141 141 143 143 148 149 143 131 122 120 114 87 64 57 48 38 32 28 26 24 21 19 17 16 16 15 13 11 8 5 3 0 356
41 36 110 135 139 138 136 153 177 186 189 188 185 179 173 178 183 185 190 192 195 198 195 196 199 198 199 200 199 201 201 193 190 197 205 214 221 220 216 228 239 183 159 162 163 162 163 157 149 141 141 149 151 152 159 164 168 168 159 150 149 149 133 86 60 48 36 26 20 16 14 11 9 7 5 6 7 7 7 6 4 2 1 360 358
21 31 83 119 126 125 114 129 152 173 183 174 170 172 173 180 186 189 190 188 190 193 192 192 197 199 199 199 198 197 194 188 186 191 200 206 202 200 203 199 194 179 125 147 157 165 169 161 150 147 150 161 164 163 170 177 181 182 176 166 164 154 134 75 37 22 14 9 7 5 3 2 360 358 358 358 359 0 1 1 0 359 358 357 357
5 14 68 91 82 31 29 101 136 159 177 170 165 172 179 184 189 192 189 182 179 178 177 178 173 170 175 180 184 188 187 185 185 186 191 193 190 192 199 202 204 212 198 148 141 157 168 167 165 172 175 181 183 181 183 186 189 193 197 216 229 161 139 348 343 344 346 349 352 352 353 352 350 350 351 353 354 354 356 357 356 355 354 355 354
341 345 25 42 337 333 310 249 214 157 166 165 163 171 178 180 180 184 181 173 168 168 170 169 160 150 151 160 172 181 184 186 187 188 189 189 189 197 206 216 231 234 229 226 231 169 177 184 187 191 198 199 199 200 197 191 191 198 207 224 253 275 288 301 306 311 322 331 337 340 340 340 340 342 345 347 347 348 350 352 352 351 351 351 351
278 287 327 326 274 280 233 229 234 174 160 161 162 166 169 169 164 166 171 167 164 166 171 171 167 161 155 157 170 181 185 191 194 195 197 197 199 206 213 224 238 242 239 239 236 226 217 215 209 208 213 210 209 211 206 195 192 198 212 232 254 266 271 280 285 291 303 314 321 323 324 328 332 336 339 340 341 343 345 348 348 347 347 348 348
260 262 274 263 239 239 221 220 222 183 160 160 163 165 164 164 161 161 168 169 167 171 176 177 180 184 182 180 182 183 188 199 203 204 207 209 212 216 221 230 240 242 242 243 241 236 240 243 231 229 229 219 212 212 207 201 202 208 219 233 248 258 263 268 274 282 292 299 305 308 314 321 326 329 331 334 336 338 342 344 343 343 343 344 343
269 271 266 249 233 232 230 225 219 197 174 168 168 170 168 168 173 177 180 183 184 188 195 199 204 211 217 221 218 204 200 207 211 210 214 217 221 225 229 236 242 243 242 244 245 242 242 250 246 240 237 223 212 210 210 211 217 223 228 236 245 255 260 264 270 278 283 287 293 300 308 315 319 321 325 328 331 334 338 339 338 338 339 338 337
269 270 259 245 238 236 236 232 221 209 198 184 176 178 179 179 184 189 195 201 202 205 208 215 226 234 239 242 239 225 216 216 214 214 217 218 220 223 229 238 245 247 246 245 246 246 245 250 255 246 237 225 213 212 215 218 225 232 237 243 249 254 259 263 268 273 277 281 288 295 302 307 311 315 319 323 328 332 334 334 333 334 335 334 332
254 258 250 242 238 232 228 226 218 212 209 201 189 187 189 194 198 202 207 210 211 214 216 219 228 238 242 242 236 227 225 226 221 217 215 214 218 226 235 244 249 250 247 242 242 247 247 249 254 247 239 233 224 222 225 227 231 236 242 247 251 255 259 263 267 270 273 277 283 289 295 300 305 310 316 321 326 329 330 329 329 330 331 330 328
244 245 239 226 203 180 177 191 206 213 215 214 209 204 204 206 210 215 220 219 215 215 219 223 229 235 235 230 225 224 226 228 226 226 228 232 241 247 248 250 251 250 246 238 235 238 239 242 246 244 238 237 234 235 238 239 240 243 245 248 252 256 261 265 268 269 271 274 279 283 289 294 301 307 314 319 323 325 325 324 325 326 326 325 321
236 229 219 198 172 153 136 138 186 211 217 222 220 215 214 217 220 224 227 226 217 213 215 220 226 230 225 218 218 223 229 232 233 238 246 256 262 261 258 258 258 253 248 243 237 235 237 242 246 243 238 237 238 239 241 244 249 253 254 256 257 260 264 267 268 269 270 273 277 281 286 292 299 306 312 316 319 320 321 321 321 322 322 319 315
224 212 203 192 177 166 157 150 167 206 208 215 215 213 220 228 231 231 232 227 216 209 211 215 220 224 224 220 220 224 230 235 239 244 249 255 260 263 266 268 269 264 258 253 248 245 247 250 252 250 246 247 249 251 253 258 263 264 261 260 261 262 265 266 265 266 268 269 272 277 283 290 297 303 309 313 316 317 317 318 319 319 318 316 314
218 200 192 195 193 189 186 182 181 117 82 84 134 222 239 243 239 234 232 229 220 213 213 215 218 222 226 231 233 235 239 242 246 251 255 257 260 263 265 267 267 266 263 260 259 259 259 259 259 257 255 257 261 264 268 272 272 269 264 261 261 262 262 263 263 265 268 268 269 273 279 286 294 301 306 311 312 312 313 315 316 317 316 315 316
213 198 191 197 203 208 212 209 201 179 113 83 72 54 277 254 250 245 240 237 232 227 225 224 223 226 230 237 243 248 252 255 258 262 265 267 268 268 268 267 266 266 265 264 264 264 263 262 260 258 258 262 266 268 270 270 270 270 269 267 265 264 264 264 263 264 266 267 268 272 279 287 294 300 305 307 308 309 311 314 315 315 315 316 318
207 201 200 204 210 215 216 211 211 213 216 227 233 234 246 245 250 254 252 248 245 245 246 246 245 244 244 247 251 255 258 261 263 266 269 271 273 272 272 273 273 272 271 269 267 265 263 262 260 260 262 265 269 270 271 270 269 269 270 268 267 267 268 268 265 263 263 264 266 271 278 286 293 298 302 303 305 309 312 315 316 316 316 318 320
205 206 208 211 216 218 216 212 215 220 226 232 233 234 236 236 237 241 245 248 249 251 255 258 259 259 258 259 261 263 265 266 266 269 272 274 274 273 272 273 275 274 273 271 268 265 263 261 261 263 266 267 269 273 277 276 273 270 267 266 266 267 267 267 264 259 259 261 264 270 277 285 291 295 298 301 305 310 314 316 317 317 317 319 322
212 214 216 218 220 221 221 221 225 230 235 237 238 239 240 240 241 242 243 246 247 248 253 258 260 262 264 266 268 268 269 269 270 272 274 275 274 273 273 274 275 275 273 271 269 267 265 263 263 264 266 267 270 274 275 273 271 271 271 269 269 268 266 262 258 255 256 260 265 273 281 286 289 292 296 301 306 312 314 315 315 315 316 319 323
219 220 223 227 228 228 228 230 234 238 241 243 245 247 248 249 250 250 250 250 250 250 251 254 257 260 262 265 266 267 267 268 270 272 275 277 278 277 277 277 277 278 277 275 274 273 272 270 269 267 266 269 273 274 273 273 274 275 274 270 266 263 260 255 252 252 254 260 268 276 281 284 287 292 297 302 308 311 313 313 313 313 316 320 323
222 225 228 232 234 234 234 235 239 242 245 247 250 251 253 256 259 259 259 258 258 257 256 256 257 258 258 260 262 264 266 267 269 272 275 277 278 279 279 279 281 281 280 278 276 275 276 276 274 270 268 270 273 276 281 282 280 279 275 265 256 254 253 249 248 251 257 265 272 276 279 282 287 292 297 303 307 310 311 311 312 313 316 320 324
225 230 232 234 237 238 236 237 240 244 247 249 251 254 257 259 261 263 264 265 265 265 265 264 264 263 262 262 263 264 265 266 269 271 274 276 277 278 279 280 281 281 280 279 276 274 273 270 268 268 269 270 273 278 285 286 284 282 276 265 256 253 250 246 248 255 263 269 274 276 278 282 287 293 298 303 307 310 310 311 312 315 318 321 323
224 230 234 237 241 243 243 243 245 249 253 254 256 258 260 262 263 265 266 266 267 268 268 268 267 267 268 267 267 267 267 267 268 269 271 273 274 275 276 277 278 278 278 278 275 272 268 264 266 273 277 275 276 280 284 286 284 279 271 261 254 249 245 248 256 263 266 270 273 276 279 283 289 296 302 306 309 311 311 313 317 319 320 322 323
217 223 229 237 244 247 250 251 253 256 258 261 262 262 263 265 266 267 268 268 268 268 268 268 267 267 268 269 270 271 271 271 270 269 270 270 271 272 273 273 274 275 276 278 277 276 276 274 277 283 284 280 278 280 281 281 277 270 260 250 244 243 247 255 262 263 265 270 273 277 280 285 292 298 304 309 311 312 313 317 320 319 319 320 322